Location: Cheyres
(46.8153°N, 6.7877°E)
Time: 04:27:05
(UTC+00:00)

Cosmos 2297 - Pass Details

Date: 11 May 2021
Orbit: 837 x 857 km, 71.0° (Epoch: 18 June)

Event Time Altitude Azimuth Distance (km) Brightness Sun altitude
Exits shadow 21:22:26 32° 125° (SE) 1,422 4.4 -19.1°
Maximum altitude 21:23:22 34° 105° (ESE) 1,371 4.4 -19.2°
Drops below altitude 10° 21:28:25 10° 43° (NE) 2,476 6.3 -19.6°
Sets 21:31:03 0° 34° (NE) 3,413 7.2 -19.8°
